Regional Weather Roundup
Issued by NWS

Home | Current Version | Previous Version | Graphics & Text | Print | Product List | Glossary On
Versions: 1 2 3 4 5 6 7 8 9 10 11 12 13 14 15 16 17 18 19 20 21 22 23 24 25 26 27 28 29 30 31 32 33 34 35 36 37 38 39 40 41 42 43 44 45 46 47 48 49 50
557
ASUS43 KMKX 250400
RWRWI

WISCONSIN REGIONAL WEATHER ROUNDUP
NATIONAL WEATHER SERVICE MILWAUKEE/SULLIVAN WI
1000 PM CST FRI NOV 24 2017

NOTE: "FAIR" INDICATES FEW OR NO CLOUDS BELOW 12,000 FEET WITH NO
SIGNIFICANT WEATHER AND/OR OBSTRUCTIONS TO VISIBILITY.

WIZ001-002-006>008-014>016-023>028-250500-
NORTHWEST WISCONSIN

CITY           SKY/WX    TMP DP  RH WIND       PRES   REMARKS
SUPERIOR ARPT  CLOUDY    40  34  78 W10G16    29.61R WCI  34
ASHLAND        CLOUDY    40  35  83 W10       29.58R WCI  33
HAYWARD        CLOUDY    40  34  79 W8        29.62R WCI  34
SIREN          PTCLDY    37  32  82 W7        29.67R WCI  32
CUMBERLAND     MOCLDY    37  32  81 NW13G21   29.65R WCI  29
RICE LAKE      MOCLDY    39  35  84 W8        29.66R WCI  34
CHETEK         PTCLDY    39  36  88 W7        29.64R WCI  34
LADYSMITH      CLOUDY    42  35  75 NW16      29.62R
EAU CLAIRE     NOT AVBL
MENOMONIE      CLEAR     41  35  79 W13       29.68R
NEW RICHMOND   NOT AVBL
OSCEOLA        CLEAR     41  33  74 W10       29.72R
$$

WIZ003>005-009-010-017-018-250500-
NORTH CENTRAL WISCONSIN

CITY           SKY/WX    TMP DP  RH WIND       PRES   REMARKS
MANITOWISH WTR CLOUDY    37  37 100 NW10G16   29.53R WCI  30
ARBOR VITAE    CLEAR     39  34  82 NW9       29.53R WCI  33
WOODRUFF       CLEAR     39  34  82 NW9       29.53R WCI  33
RHINELANDER    CLOUDY    40  35  83 NW8       29.54R WCI  34
EAGLE RIVER    CLOUDY    38  32  78 NW10G16   29.52R WCI  31
LAND O LAKES   CLOUDY    38  35  87 NW10      29.51R WCI  31
PHILLIPS       CLOUDY    38  36  89 W6        29.57R WCI  34
TOMAHAWK       CLOUDY    39  35  84 W9        29.55R WCI  33
MEDFORD        CLOUDY    40  36  84 NW13G22   29.57R WCI  33
MERRILL        CLOUDY    41  38  87 NW8       29.57R
$$

WIZ029-030-035-036-043>047-250500-
CENTRAL WISCONSIN

CITY           SKY/WX    TMP DP  RH WIND       PRES   REMARKS
WAUSAU         CLOUDY    43  38  82 NW10      29.55R
MOSINEE        CLOUDY    43  39  87 W13       29.58R
MARSHFIELD     CLOUDY    43  36  76 NW22G29   29.59R
STEVENS POINT  CLOUDY    43  41  95 NW9G18    29.57R
WAUPACA        CLEAR     49  43  81 W7        29.53R
WAUTOMA        PTCLDY    46  42  86 NW15      29.58R
WISC RAPIDS    CLOUDY    46  40  79 NW20G26   29.60R
CAMP DOUGLAS   PTCLDY    45  42  91 NW9       29.62R
$$

WIZ011>013-019>022-031-037>040-048>050-250500-
NORTHEAST WISCONSIN

CITY           SKY/WX    TMP DP  RH WIND       PRES   REMARKS
ANTIGO         CLOUDY    40  37  89 NW14G22   29.52R WCI  33
SHAWANO        CLOUDY    47  42  85 W9        29.51R
OCONTO         CLOUDY    47  44  90 W6        29.46R
STURGEON BAY   LGT RAIN  47  45  93 NW9       29.46R
GREEN BAY      CLOUDY    48  46  93 NW12      29.49R
MANITOWOC      LGT RAIN  50  47  89 W13       29.48R
APPLETON       MOCLDY    48  43  81 NW13      29.49R
CLINTONVILLE   CLEAR     45  41  87 NW8       29.51R
OSHKOSH        CLOUDY    50  45  83 NW14      29.52R
$$

WIZ032>034-041-042-053>061-250500-
SOUTHWEST WISCONSIN

CITY           SKY/WX    TMP DP  RH WIND       PRES   REMARKS
LA CROSSE      CLEAR     45  39  79 NW9       29.67R
SPARTA         CLOUDY    46  42  85 W6G16     29.65R
VIROQUA          N/A     46  42  87 NW10G22   29.65R
BOSCOBEL       PTCLDY    51  41  68 NW14G24   29.67R
PRAIRIE DU CHI CLEAR     50  40  68 NW15G21   29.67R
PLATTEVILLE    CLOUDY    53  44  73 NW18G30   29.63R
$$

WIZ056-057-062-063-064-067-068-250500-
SOUTH CENTRAL WISCONSIN

CITY           SKY/WX    TMP DP  RH WIND       PRES   REMARKS
REEDSBURG      MOCLDY    49  42  78 NW9G21    29.60R
BARABOO/DELLS  CLOUDY    49  41  73 NW12G26   29.59R
LONE ROCK      NOT AVBL
MINERAL POINT  CLOUDY    54  46  76 NW20G28   29.61R
MADISON        LGT RAIN  52  45  77 NW9G18    29.57R
MIDDLETON      CLOUDY    55  45  68 NW15G22   29.57R
WATERTOWN      CLOUDY    53  44  73 W9        29.52R
MONROE         CLOUDY    54  41  62 W14       29.57R
JANESVILLE     CLOUDY    54  41  62 W10       29.54R
$$

WIZ051-052-058>065-066-070>072-250500-
SOUTHEAST WISCONSIN

CITY           SKY/WX    TMP DP  RH WIND       PRES   REMARKS
MILWAUKEE      LGT RAIN  57  42  57 NW13      29.50R
WAUKESHA       LGT RAIN  50  39  66 W12       29.52R
MILWAUKEE/TIMM RAIN      54  37  54 NW12      29.49R
RACINE         LGT RAIN  54  42  64 W5        29.50R
BURLINGTON     CLOUDY    56  46  67 W8        29.51R
KENOSHA        LGT RAIN  53  41  63 W7        29.50R
FOND DU LAC    CLOUDY    51  44  77 NW15G24   29.52R
SHEBOYGAN      LGT RAIN  51  47  86 W9        29.49R
WEST BEND      CLOUDY    52  43  71 NW10      29.49R
JUNEAU         CLOUDY    51  44  76 W5        29.53R
$$

LSZ147-162-250500-
LAKE SUPERIOR

STATION/POSITION TIME  TEMP    WIND        PRES    WAVE
                       AIR SEA DIR/SP/G            HT/PER
                 (UTC) (F)     (DEG/KT/KT) (MB)    (FT/S)
DEVILS ISLAND    0300   42     300/ 17/ 20 1000.1R
SAXON HARBOR     0340   41     230/  5/  7 1001.0R
$$

LMZ867-665-643>646-250500-
LAKE MICHIGAN

STATION/POSITION TIME  TEMP    WIND        PRES    WAVE
                       AIR SEA DIR/SP/G            HT/PER
                 (UTC) (F)     (DEG/KT/KT) (MB)    (FT/S)
N MID LAKE BUOY  0250   47 47  300/ 17/ 19  996.0R   8/ 8
NORTHPORT PIER   0340   46     300/  8/ 12  996.6R
KEWAUNEE LAKESHO 0330   49     300/  7/ 10  996.3R
SHEBOYGAN LAKESH 0300   57     290/ 13/ 16  997.3R
PORT WASHINGTON  0330   57     310/  7/ 19  999.0R
MILWAUKEE LAKESH 0340   56     290/  6/  7   N/A
S MID LAKE BUOY  0250   50 47  210/ 17/ 21  997.8R   5/ 6
KENOSHA   LAKESH 0300   56     260/  8/ 11  998.6
$$

TC  - TEMPERATURE IN CELSIUS
VSB - VISIBILITY IN STATUTE MILES
WCI - WIND CHILL INDEX
HX  - HEAT INDEX





USA.gov is the U.S. government's official web portal to all federal, state and local government web resources and services.